Bolton Field, OH

7:50 PM EDT on September 22, 2017 (GMT -0400)
Bolton

Weather History for KTZR - January, 2014

Change the Weather History Date:

Sunday, January 5, 2014

  Actual Average Record
Temperature  
Mean Temperature 34 °F -  
Max Temperature 41 °F 36 °F 62 °F (1998)
Min Temperature 27 °F 24 °F -7 °F (1999)
Degree Days  
Heating Degree Days 31    
Moisture  
Dew Point 30 °F    
Average Humidity 85    
Maximum Humidity 100    
Minimum Humidity 66    
Precipitation  
Precipitation 0.27 in - - ()
Sea Level Pressure  
Sea Level Pressure 29.79 in    
Wind  
Wind Speed 5 mph (SSE)    
Max Wind Speed 22 mph    
Max Gust Speed 33 mph    
Visibility 8 miles    
Events Rain , Snow    
Averages and records for this station are not official NWS values.
T = Trace of Precipitation, MM = Missing Value Source: NWS Daily Summary

Daily Weather History Graph

Daily Weather History Graph

Search for Another Location

Airport or City:

Trip Planner

Search our weather history database for the weather conditions in past years. The results will help you decide how hot, cold, wet, or windy it might be!

Date:

Astronomy

Jan. 05, 2014 Rise Set
Actual Time 7:54 AM EST 5:21 PM EST
Civil Twilight 7:24 AM EST 5:52 PM EST
Nautical Twilight 6:50 AM EST 6:25 PM EST
Astronomical Twilight 6:17 AM EST 6:58 PM EST
Moon 10:35 AM EST (1/5) 10:48 PM EST (1/5)
Length of Visible Light 10h 28m
Length of Day
9h 27m
Waxing Crescent, 24% of the Moon is Illuminated
Jan 5
Waxing Crescent
Jan 7
First Quarter
Jan 15
Full
Jan 24
Last Quarter
Jan 30
New

Hourly Weather History & Observations

Time (EST) Temp. Windchill Dew Point Humidity Pressure Visibility Wind Dir Wind Speed Gust Speed Precip Events Conditions
12:15 AM 27.5 °F 23.6 °F 17.4 °F 66% 30.07 in 10.0 mi West 3.5 mph - N/A   Overcast
12:35 AM 28.2 °F - 18.5 °F 67% 30.08 in 10.0 mi North - - N/A   Overcast
12:55 AM 28.4 °F - 21.7 °F 76% 30.08 in 10.0 mi Calm Calm - N/A   Overcast
1:15 AM 28.4 °F - 21.2 °F 74% 30.07 in 10.0 mi Calm Calm - N/A   Overcast
1:35 AM 28.9 °F - 23.0 °F 78% 30.06 in 10.0 mi Calm Calm - N/A   Overcast
1:55 AM 28.8 °F 25.0 °F 22.1 °F 76% 30.06 in 10.0 mi ESE 3.5 mph - N/A   Overcast
2:15 AM 28.4 °F - 22.1 °F 77% 30.06 in 10.0 mi Calm Calm - N/A   Overcast
2:35 AM 28.9 °F 23.9 °F 21.4 °F 73% 30.06 in 10.0 mi SE 4.6 mph - N/A   Overcast
2:55 AM 29.3 °F - 20.3 °F 69% 30.06 in 10.0 mi North - - N/A   Overcast
3:15 AM 29.7 °F 24.7 °F 19.4 °F 66% 30.06 in 10.0 mi SSE 4.6 mph - N/A   Overcast
3:35 AM 29.3 °F - 20.1 °F 69% 30.06 in 10.0 mi North - - N/A   Overcast
3:55 AM 29.8 °F - 20.7 °F 69% 30.05 in 10.0 mi North - - N/A   Overcast
4:15 AM 30.2 °F - 21.2 °F 69% 30.04 in 10.0 mi North - - N/A   Overcast
4:35 AM 30.2 °F - 21.2 °F 69% 30.04 in 10.0 mi Calm Calm - N/A   Overcast
4:55 AM 30.6 °F 27.1 °F 21.7 °F 70% 30.03 in 10.0 mi SSE 3.5 mph - N/A   Overcast
5:15 AM 30.6 °F - 22.5 °F 72% 30.03 in 10.0 mi North - - N/A   Overcast
5:35 AM 30.7 °F - 22.8 °F 72% 30.02 in 10.0 mi North - - N/A   Overcast
5:55 AM 31.1 °F 27.7 °F 23.5 °F 74% 30.03 in 10.0 mi SSE 3.5 mph - N/A   Overcast
6:15 AM 31.8 °F 26.2 °F 24.4 °F 74% 30.01 in 10.0 mi SSE 5.8 mph - N/A   Overcast
7:30 AM 33.8 °F 26.4 °F 24.8 °F 70% 30.01 in 10.0 mi SSE 9.2 mph - N/A   Overcast
7:50 AM 33.8 °F 27.0 °F 26.6 °F 75% 30.01 in 10.0 mi SSE 8.1 mph - N/A   Overcast
8:55 AM 33.8 °F 29.6 °F 28.4 °F 81% 30.00 in 5.0 mi SSE 4.6 mph - N/A   Haze
9:30 AM 33.8 °F 28.6 °F 30.2 °F 87% 30.00 in 5.0 mi South 5.8 mph - N/A   Overcast
9:50 AM 33.8 °F - 32.0 °F 93% 29.99 in 2.5 mi Calm Calm - N/A   Overcast
10:05 AM 33.8 °F - 32.0 °F 93% 29.98 in 1.0 mi Calm Calm - N/A Rain Rain
10:50 AM 33.8 °F 27.7 °F 33.8 °F 100% 29.94 in 4.0 mi ESE 6.9 mph - N/A Rain Light Rain
11:15 AM 33.8 °F 26.4 °F 33.8 °F 100% 29.90 in 10.0 mi ESE 9.2 mph - N/A   Overcast
11:50 AM 35.6 °F 28.6 °F 33.8 °F 93% 29.86 in 7.0 mi SE 9.2 mph - N/A   Overcast
12:50 PM 35.6 °F 31.7 °F 33.8 °F 93% 29.80 in 7.0 mi East 4.6 mph - N/A   Overcast
1:55 PM 39.2 °F 33.6 °F 33.8 °F 81% 29.70 in 10.0 mi SE 8.1 mph - N/A   Overcast
2:50 PM 39.2 °F 32.5 °F 33.8 °F 81% 29.67 in 10.0 mi SE 10.4 mph - N/A   Overcast
3:50 PM 41.0 °F 39.0 °F 35.6 °F 81% 29.67 in 10.0 mi SSE 3.5 mph - N/A   Overcast
4:47 PM 39.2 °F 33.0 °F 35.6 °F 87% 29.62 in 10.0 mi ESE 9.2 mph - N/A   Overcast
5:50 PM 39.2 °F 35.0 °F 35.6 °F 87% 29.55 in 10.0 mi ESE 5.8 mph - N/A Rain Light Rain
6:35 PM 38.3 °F 35.9 °F 36.7 °F 94% 29.52 in 7.0 mi East 3.5 mph - 0.03 in Rain Rain
6:47 PM 37.4 °F - 35.6 °F 93% 29.52 in 10.0 mi Calm Calm - N/A Rain Light Rain
6:55 PM 37.9 °F - 36.7 °F 95% 29.51 in 5.0 mi Calm Calm - 0.06 in Rain Rain
7:15 PM 38.5 °F - 37.4 °F 96% 29.51 in 7.0 mi Calm Calm - 0.02 in Rain Rain
7:35 PM 38.5 °F - 37.8 °F 97% 29.50 in 4.0 mi North - - 0.06 in Rain Rain
7:55 PM 39.2 °F 33.6 °F 38.3 °F 97% 29.47 in 7.0 mi SSE 8.1 mph - 0.09 in Rain Rain
8:15 PM 39.6 °F 34.0 °F 38.8 °F 97% 29.45 in 10.0 mi SSE 8.1 mph - 0.01 in Rain Light Rain
8:35 PM 40.5 °F 34.6 °F 39.6 °F 97% 29.44 in 10.0 mi SSE 9.2 mph - 0.01 in Rain Light Rain
8:55 PM 39.9 °F 34.5 °F 39.4 °F 98% 29.42 in 7.0 mi SSE 8.1 mph - 0.01 in Rain Light Rain
9:15 PM 40.5 °F - 40.3 °F 99% 29.41 in 5.0 mi North - - 0.01 in Rain Light Rain
9:35 PM 41.0 °F 34.7 °F 40.6 °F 99% 29.39 in 4.0 mi SSE 10.4 mph - 0.02 in Rain Light Rain
9:55 PM 41.2 °F 31.6 °F 41.0 °F 99% 29.43 in 2.5 mi West 21.9 mph 29.9 mph 0.06 in Rain Light Rain
10:15 PM 35.4 °F 25.3 °F 34.7 °F 97% 29.44 in 3.0 mi WNW 17.3 mph 26.5 mph 0.01 in Rain Light Rain
10:35 PM 34.3 °F 26.5 °F 33.4 °F 97% 29.45 in 7.0 mi WNW 10.4 mph 19.6 mph 0.03 in Rain Light Rain
10:55 PM 33.8 °F 25.8 °F 33.1 °F 97% 29.45 in 7.0 mi WNW 10.4 mph - 0.05 in Rain Light Rain
11:15 PM 33.3 °F 25.1 °F 32.7 °F 98% 29.45 in 7.0 mi West 10.4 mph 17.3 mph N/A Snow Light Snow
11:35 PM 32.0 °F 20.5 °F 31.5 °F 98% 29.51 in 1.5 mi WNW 18.4 mph 25.3 mph N/A Snow Light Snow
11:55 PM 27.7 °F 13.8 °F 25.9 °F 93% 29.54 in 1.5 mi WNW 21.9 mph 33.4 mph N/A Snow Light Snow